Voltar ao catálogo

STARLINK-38040

AtivoComunicaçõesSSO
NORAD 69717·PAYLOAD·🇺🇸 United States

Lançado Jun 28, 2026 de Vandenberg Space Force Base

Loading…

Próximas Passagens (próximas 24 horas)

TLE

AtualizadoSource: CelesTrak SupGP

Época: Sep 14, 2026, 22:46 UTC

1 69717C 26147P   26257.94909722  .00043813  00000+0  13604-2 0  2575
2 69717  97.2832 294.3982 0001258  87.6963 273.3211 15.33409110    12

Acompanhe STARLINK-38040 em tempo real com AllMySat

Download on the App Store